"Pseudo-MPEC" for C3NHUQ1

Created 2023 Apr 3 20:22:04 UT using Find_Orb

Click here for an explanation of pseudo-MPECs

 
 Astrometry: 
     C3NHUQ1*1C2023 04 02.36710914 52 39.360-20 08 22.20   ~429b 17.27GVNEOCP703
     C3NHUQ1 1C2023 04 02.37240514 52 23.516-20 06 21.60   ~429b 17.37GVNEOCP703
     C3NHUQ1 1C2023 04 02.37770314 52 07.630-20 04 19.63   ~429b 17.50GVNEOCP703
     C3NHUQ1 1C2023 04 02.38299814 51 51.768-20 02 18.20   ~429b 17.22GVNEOCP703
     C3NHUQ1 mC2023 04 02.48199014 46 58.429-19 23 51.86   ~42Bq 17.18GVNEOCPI52
     C3NHUQ1 mC2023 04 02.48216014 46 57.932-19 23 47.87   ~42Bq 17.22GVNEOCPI52
     C3NHUQ1 mC2023 04 02.48233114 46 57.443-19 23 43.87   ~42Bq 17.24GVNEOCPI52
     C3NHUQ1 mC2023 04 02.48250014 46 56.939-19 23 39.84   ~42Bq 17.26GVNEOCPI52
     C3NHUQ1 KC2023 04 02.96605514 25 46.262-16 17 44.23   ~42Nq 17.6 GVNEOCPJ95
     C3NHUQ1 KC2023 04 02.97225714 25 29.856-16 15 23.22   ~42Nq 17.1 GVNEOCPJ95
     C3NHUQ1 KC2023 04 02.97646014 25 18.701-16 13 46.74   ~42Nq 17.4 GVNEOCPJ95
     C3NHUQ1 KC2023 04 02.97977914 25 09.914-16 12 31.46   ~42Nq 17.2 GVNEOCPJ95
     C3NHUQ1 KC2023 04 03XnN`c3Q$LF\yt'*73n$c1jf(Mn9Zbs-@g6+IX/uXkO,LYD_'H8lBJ22
     C3NHUQ1 KC2023 04 03utk4.SaM)RT4UfCQx4Z*`9Ny@Q3CDbq5vh7B@NJT)jAstrometryJ22
     C3NHUQ1 KC2023 04 03w4henr%-G%(R'oO%WG;-M]DISew#smqo[6c.K/uSa6'Y]vfdZ033J22
     C3NHUQ1 KC2023 04 03OdkIE^t:t0#\(k!5,W7B_pZ56DIG2]PP(Su@redacted;Min8GPO734
     C3NHUQ1 KC2023 04 03u@e'wJ6s^/(O0nf;Ennt5Bd]Z14R`/LK7J(;:!y@d[JOP6jO_^IN734
     C3NHUQ1 KC2023 04 03Zg1:xEm9/?CF;8!n2fO\;YM_b2C2`$SqrR=?E9c60uN1i;QwFRJ+734
     C3NHUQ1 KC2023 04 03:6)Lv-ZnY2ey1EltK(*F1p5LG-#n_(S\oC`c#L(V]MXR*xo2gu4t734
     C3NHUQ1 KC2023 04 03y\4[54yL:noU1L'm\?t^wLimJ8k4n@gPTH?h!E\Jok5As)$8#biPE23
     C3NHUQ1 KC2023 04 03+\Tx20@S:t!4VYxZNDpJ=S(/VDR`P4oN+o:oim0cHx%X1W9:!/rb900
     C3NHUQ1 KC2023 04 03F[rj33t\Ha+Vtc@]erD*M]xOF!bb]4RJGM]OghFx/Su7osuC0sLVE23
     C3NHUQ1 KC2023 04 035MwdR)iT0clickIk`kZ`iPoa*DRyqMv'F]5*UfhereHbJ7pZ;at,900
     C3NHUQ1 KC2023 04 03uZuL*6V(i/`'=b?RFtso6C,,WGHR-C2\ops%yb5yXOZuky(8N!-dE23
     C3NHUQ1 KC2023 04 03xmKUos-pt_@DXEC@4vx=WN/VVG*1TIcGtpGsqTX7Rj7vdKLi)jR:900
     C3NHUQ1 KC2023 04 03yxeSG(Tu!Kv[xn50+gB=dHjZkMKCA%v@E)AM]qNforbG/`;xp!@J900
     C3NHUQ1 KC2023 04 03w7hE'Ij/NgP-cJRlFZ*=.ldr-ZpW[6(2Np2/sr!D#/-'aTMA^D**900
     C3NHUQ1 KC2023 04 03ckCrIXcQjexplanationk!OYMP#P_dW!+vV)Zal\,5/UGr`8=bn=900
     C3NHUQ1 1C2023 04 03kMDAPt[;R6372j@G+g)7Vlm$-[I0S:^w6hrq)$-qosai@FV$]3p*C40
     C3NHUQ1 1C2023 04 0375l-J;q#V/!lxM=[+JRwmCmv+gl5$[[e`w\cSFyxkYv@fP=3t5'NC40
     C3NHUQ1 1C2023 04 0312;X!sm]^SZtqg@5f[(R1rb?+6/2dtxY,R76-qd$8_n$#O`/:b'VC40
     C3NHUQ1 1C2023 04 03[glDy0?RiK,u%C13nPk,59dlBJ]f]9!J`F$JeV:jb5p+!]S+(_@BC40
     C3NHUQ1 1C2023 04 03I2dMh!mL;nvUn%3Vs$rctWd10I9oi5rUTEDUlpJaFYUG_iWXGPAuC40
     C3NHUQ1 1C2023 04 03a_,rbyAQ5naC9+R`U#G!6VuyZ.Fd)AKC'w+'s7pgxmZ]E@8gm9xpC40

Station data:
(703) Catalina Sky Survey  (N32.417003 W110.732640)  US/Arizona.  Observer E.
   J. Christensen. 0.68 m Schmidt + 10K CCD.
(734) Farpoint Observatory, Eskridge  (N38.890104 W96.001400)  US/Kansas.
   Observer G. Hug. 0.69-m reflector + CCD.
(900) Moriyama  (N35.049753 E135.989940)  Japan.  Observer Y. Ikari. 0.26-m
   f/7.0 reflector + CCD.
(C40) Kuban State University Astrophysical Observatory  (N45.019544
   E39.030800)  Russia.  Observer A. Ivanov. 0.51-m f/8 reflector + CCD.
(E23) Arcadia  (S33.621197 E151.071190)  Australia/NSW.  Observer A. Hidas.
   0.35-m f/1.9 reflector + CCD.
(I52) Steward Observatory, Mt. Lemmon Station  (N32.442544 W110.788920)
   US/Arizona.  Observers T. A. Pruyne, B. M. Africano, E. J. Christensen, G.
   A. Farneth, D. C. Fuls, A. R. Gibbs, A. D. Grauer, H. Gröller, J. A.
   Johnson, R. A. Kowalski, S. M. Larson, G. J. Leonard, D. Rankin, R. L.
   Seaman, F. C. Shelly, K. W. Wierzchoś. 1.0-m prime focus + CCD.
(J22) Tacande Observatory, La Palma  (N28.641559 W17.867650)  Canary Islands
   (Spain).  Observer K. Hills. 0.5-m f/2.9 astrograph + CCD.
(J95) Great Shefford  (N51.474969 W1.447003)  UK/England.  Observer P.
   Birtwhistle. 0.41-m f/6.3 Schmidt-Cassegrain + CCD.

Orbital elements:  C3NHUQ1
   Perihelion 2023 Jan 4.03242 +/- 0.0193 TT =  0:46:41 (JD 2459948.53242)
Epoch 2023 Apr  3.0 TT = JDT 2460037.5   Earth MOID: 0.0058   Ve: 0.0813
M 125.72673437 +/- 0.011            (J2000 ecliptic)             AutoNEOCP
n   1.41317473 +/- 0.000185         Peri.  206.77902 +/- 0.0039
a   0.78645185 +/- 6.87e-5          Node   193.65857 +/- 0.00024
e   0.3867903 +/- 0.000183          Incl.    4.30052 +/- 0.0030
P   0.70/254.74d           H 24.63  G  0.15   U  7.0
q 0.48225986 +/- 0.000186    Q 1.09064384 +/- 5.06e-5
32 of 34 observations 2023 Apr. 2-3 (35.0 hr); mean residual 0".28
Residuals in arcseconds: 
230402 703  .14-  .78+    230403 J22( 2.5-  .56+)   230403 900  .24+  .45+    
230402 703  .24+  .04-    230403 J22  .94-  .47+    230403 900  .24-  .13-    
230402 703  .00   .29+    230403 J22( 1.9-  .73-)   230403 900  .00   .06-    
230402 703  .16-  .02-    230403 734  .35+  .02-    230403 900  .05-  .12+    
230402 I52  .17+  .01-    230403 734  .02+  .35+    230403 C40  .29-  .34+    
230402 I52  .18+  .03-    230403 734  .26+  .04-    230403 C40  .24+  .33+    
230402 I52  .33+  .06-    230403 734  .61+  .31-    230403 C40  .44-  .34+    
230402 I52  .19+  .01-    230403 E23  .02-  .30-    230403 C40  .03+  .01+    
230402 J95  .14-  .13+    230403 900  .04-  .23+    230403 C40  .07+  .33-    
230402 J95  .19+  .36-    230403 E23  .07+  .15+    230403 C40  .44+  .38-    
230402 J95  .13-  .19+    230403 900  .14+  .06-    
230402 J95  .09-  .31-    230403 E23  .22+  .18+    

Ephemerides (geocentric):
Date (UTC) HH   RA             Dec           delta  r     elong  mag " sig PA
---- --------  ------------   ------------  ------ ------ -----  --- --------
2023 04 03 20  13 51 38.100   -10 49 34.74  .02362 1.0225 163.7 17.5 .099 158
2023 04 03 21  13 50 09.418   -10 34 52.44  .02371 1.0226 164.2 17.5 .091 160
2023 04 03 22  13 48 41.559   -10 20 15.41  .02380 1.0228 164.6 17.5 .082 161
2023 04 03 23  13 47 14.517   -10 05 43.77  .02389 1.0229 165.1 17.4 .074 163
2023 04 04 00  13 45 48.289   -09 51 17.59  .02399 1.0231 165.5 17.4 .065 166
2023 04 04 01  13 44 22.871   -09 36 56.97  .02409 1.0232 166.0 17.4 .056 170
2023 04 04 02  13 42 58.256   -09 22 41.97  .02419 1.0234 166.4 17.4 .048 176
2023 04 04 03  13 41 34.441   -09 08 32.69  .02428 1.0235 166.9 17.4 .040   5
2023 04 04 04  13 40 11.421   -08 54 29.19  .02439 1.0237 167.3 17.4 .033  17
2023 04 04 05  13 38 49.191   -08 40 31.53  .02449 1.0238 167.7 17.4 .029  35
2023 04 04 06  13 37 27.744   -08 26 39.77  .02459 1.0240 168.1 17.4 .028  57
2023 04 04 07  13 36 07.077   -08 12 53.97  .02470 1.0241 168.6 17.4 .031  78
2023 04 04 08  13 34 47.183   -07 59 14.17  .02480 1.0243 169.0 17.4 .038  93
2023 04 04 09  13 33 28.056   -07 45 40.43  .02491 1.0244 169.4 17.4 .047 103
2023 04 04 10  13 32 09.692   -07 32 12.79  .02502 1.0246 169.8 17.4 .056 110
2023 04 04 11  13 30 52.084   -07 18 51.29  .02513 1.0247 170.2 17.4 .067 115
2023 04 04 12  13 29 35.227   -07 05 35.95  .02524 1.0249 170.6 17.4 .078 118
2023 04 04 13  13 28 19.114   -06 52 26.80  .02535 1.0250 170.9 17.4 .089 121
2023 04 04 14  13 27 03.740   -06 39 23.88  .02546 1.0252 171.3 17.4 .101 123
2023 04 04 15  13 25 49.098   -06 26 27.21  .02558 1.0253 171.7 17.3 .113 125
2023 04 04 16  13 24 35.182   -06 13 36.79  .02569 1.0255 172.0 17.3 .125 126
2023 04 04 17  13 23 21.987   -06 00 52.66  .02581 1.0256 172.4 17.3 .138 127
2023 04 04 18  13 22 09.506   -05 48 14.81  .02592 1.0258 172.7 17.3 .150 128
2023 04 04 19  13 20 57.732   -05 35 43.26  .02604 1.0259 173.1 17.3 .163 128
2023 04 04 20  13 19 46.659   -05 23 18.01  .02616 1.0261 173.4 17.3 .175 129
2023 04 04 21  13 18 36.282   -05 10 59.06  .02628 1.0262 173.7 17.3 .188 130
2023 04 04 22  13 17 26.594   -04 58 46.42  .02640 1.0264 174.0 17.3 .201 130
2023 04 04 23  13 16 17.587   -04 46 40.07  .02653 1.0265 174.3 17.3 .214 130
2023 04 05 00  13 15 09.257   -04 34 40.02  .02665 1.0267 174.6 17.3 .227 131
2023 04 05 01  13 14 01.596   -04 22 46.25  .02678 1.0268 174.8 17.3 .241 131
2023 04 05 02  13 12 54.599   -04 10 58.76  .02690 1.0269 175.1 17.3 .254 131
2023 04 05 03  13 11 48.258   -03 59 17.52  .02703 1.0271 175.3 17.3 .267 132
2023 04 05 04  13 10 42.568   -03 47 42.52  .02716 1.0272 175.5 17.3 .280 132
2023 04 05 05  13 09 37.522   -03 36 13.75  .02728 1.0274 175.6 17.3 .294 132
2023 04 05 06  13 08 33.113   -03 24 51.19  .02741 1.0275 175.8 17.3 .307 132
2023 04 05 07  13 07 29.336   -03 13 34.81  .02754 1.0277 175.9 17.3 .320 132
2023 04 05 08  13 06 26.183   -03 02 24.58  .02767 1.0278 176.0 17.3 .334 132
2023 04 05 09  13 05 23.649   -02 51 20.49  .02781 1.0280 176.0 17.3 .347 133
2023 04 05 10  13 04 21.727   -02 40 22.51  .02794 1.0281 176.1 17.3 .361 133
2023 04 05 11  13 03 20.412   -02 29 30.60  .02807 1.0283 176.0 17.3 .374 133
2023 04 05 12  13 02 19.695   -02 18 44.74  .02821 1.0284 176.0 17.4 .388 133
2023 04 05 13  13 01 19.573   -02 08 04.89  .02834 1.0285 175.9 17.4 .401 133
2023 04 05 14  13 00 20.037   -01 57 31.03  .02848 1.0287 175.8 17.4 .414 133
2023 04 05 15  12 59 21.082   -01 47 03.11  .02862 1.0288 175.7 17.4 .428 133
2023 04 05 16  12 58 22.702   -01 36 41.11  .02875 1.0290 175.6 17.4 .441 133
2023 04 05 17  12 57 24.891   -01 26 24.98  .02889 1.0291 175.4 17.4 .455 133
2023 04 05 18  12 56 27.643   -01 16 14.69  .02903 1.0293 175.2 17.5 .468 133
2023 04 05 19  12 55 30.951   -01 06 10.20  .02917 1.0294 175.0 17.5 .481 133